Weather History for Marshfield, WI

Change the Weather History Date:

Thursday, February 7, 2013

  Actual Average Record
Temperature  
Mean Temperature 23 °F -  
Max Temperature 25 °F 26 °F 47 °F (1987)
Min Temperature 21 °F 3 °F -20 °F (1971)
Degree Days  
Heating Degree Days 42    
Moisture  
Dew Point 22 °F    
Average Humidity 91    
Maximum Humidity 100    
Minimum Humidity 80    
Precipitation  
Precipitation 0.01 in - - ()
Sea Level Pressure  
Sea Level Pressure 30.05 in    
Wind  
Wind Speed 9 mph (NE)    
Max Wind Speed 15 mph    
Max Gust Speed 23 mph    
Visibility 4 miles    
Events Fog , Snow    
Averages and records for this station are not official NWS values.
T = Trace of Precipitation, MM = Missing Value Source: NWS Daily Summary

Daily Weather History Graph

Daily Weather History Graph

Search for Another Location

Airport:

Trip Planner

Search our weather history database for the weather conditions in past years. The results will help you decide how hot, cold, wet, or windy it might be!

Date:

Astronomy

Feb. 07, 2013 Rise Set
Actual Time 7:11 AM CST 5:18 PM CST
Civil Twilight 6:41 AM CST 5:49 PM CST
Nautical Twilight 6:06 AM CST 6:23 PM CST
Astronomical Twilight 5:32 AM CST 6:57 PM CST
Moon 4:55 AM CST (2/7) 2:39 PM CST (2/7)
Length of Visible Light 11h 07m
Length of Day
10h 06m
Waning Crescent, 9% of the Moon is Illuminated
Feb 7
Waning Crescent
Feb 10
New
Feb 17
First Quarter
Feb 25
Full
Mar 4
Last Quarter

Hourly Weather History & Observations

Time (CST) Temp. Windchill Dew Point Humidity Pressure Visibility Wind Dir Wind Speed Gust Speed Precip Events Conditions
12:40 AM 23.0 °F 14.7 °F 21.2 °F 93% 30.01 in 3.0 mi ESE 6.9 mph - N/A   Overcast
12:54 AM 23.0 °F 14.7 °F 21.0 °F 92% 30.08 in 3.0 mi East 6.9 mph - N/A   Overcast
1:24 AM 23.0 °F 15.8 °F 21.2 °F 93% 30.01 in 2.5 mi East 5.8 mph - N/A   Overcast
1:54 AM 23.0 °F 13.9 °F 21.0 °F 92% 30.07 in 2.5 mi East 8.1 mph - N/A   Overcast
2:54 AM 23.0 °F 14.7 °F 21.0 °F 92% 30.07 in 2.5 mi East 6.9 mph - N/A   Overcast
3:54 AM 23.0 °F 13.9 °F 21.0 °F 92% 30.06 in 2.5 mi ENE 8.1 mph - N/A   Overcast
4:54 AM 23.0 °F 13.1 °F 21.0 °F 92% 30.06 in 2.5 mi ENE 9.2 mph - N/A   Overcast
5:54 AM 23.0 °F 13.9 °F 21.9 °F 96% 30.04 in 2.0 mi ENE 8.1 mph - N/A   Overcast
6:33 AM 23.0 °F 14.7 °F 21.2 °F 93% 29.99 in 1.8 mi ENE 6.9 mph - N/A   Overcast
6:54 AM 23.0 °F 13.9 °F 21.9 °F 96% 30.06 in 1.5 mi ENE 8.1 mph - N/A   Overcast
7:33 AM 24.8 °F 16.1 °F 23.0 °F 93% 29.99 in 0.8 mi ENE 8.1 mph - N/A   Overcast
7:54 AM 24.1 °F 14.4 °F 23.0 °F 96% 30.06 in 0.5 mi ENE 9.2 mph - N/A Fog Light Freezing Fog
8:54 AM 25.0 °F 14.2 °F 24.1 °F 96% 30.08 in 0.5 mi ENE 11.5 mph - N/A Fog Light Freezing Fog
9:18 AM 24.8 °F 13.4 °F 24.8 °F 100% 30.02 in 1.0 mi ENE 12.7 mph - N/A   Overcast
9:34 AM 24.8 °F 13.4 °F 24.8 °F 100% 30.02 in 1.2 mi ENE 12.7 mph - N/A   Overcast
9:54 AM 25.0 °F 13.1 °F 24.1 °F 96% 30.08 in 1.2 mi ENE 13.8 mph - N/A   Overcast
10:42 AM 24.8 °F 13.4 °F 23.0 °F 93% 30.03 in 2.5 mi ENE 12.7 mph - N/A   Overcast
10:54 AM 24.1 °F 14.4 °F 23.0 °F 96% 30.09 in 2.5 mi ENE 9.2 mph - N/A   Overcast
11:22 AM 24.8 °F 14.0 °F 24.8 °F 100% 30.03 in 1.5 mi ENE 11.5 mph - N/A   Overcast
11:54 AM 25.0 °F 14.2 °F 23.0 °F 92% 30.07 in 1.8 mi ENE 11.5 mph - N/A   Overcast
12:19 PM 24.8 °F 15.3 °F 23.0 °F 93% 30.00 in 2.0 mi NE 9.2 mph - N/A   Overcast
12:54 PM 25.0 °F 15.5 °F 23.0 °F 92% 30.05 in 2.0 mi NE 9.2 mph - N/A   Overcast
1:21 PM 24.8 °F 15.3 °F 23.0 °F 93% 29.98 in 3.0 mi NE 9.2 mph - N/A   Overcast
1:54 PM 25.0 °F 14.8 °F 23.0 °F 92% 30.04 in 5.0 mi NNE 10.4 mph - N/A   Overcast
2:41 PM 24.8 °F 16.1 °F 23.0 °F 93% 29.98 in 2.0 mi NNE 8.1 mph - 0.00 in Snow Light Snow
2:54 PM 25.0 °F 16.3 °F 23.0 °F 92% 30.04 in 1.0 mi NNE 8.1 mph 18.4 mph 0.01 in Snow Light Snow
3:21 PM 24.8 °F 14.6 °F 23.0 °F 93% 29.98 in 0.5 mi NNE 10.4 mph - 0.00 in Fog , Snow Light Snow
3:45 PM 24.8 °F 16.9 °F 23.0 °F 93% 29.99 in 0.8 mi NNE 6.9 mph - 0.00 in Snow Light Snow
3:54 PM 25.0 °F 15.5 °F 23.0 °F 92% 30.05 in 1.0 mi NNE 9.2 mph - 0.00 in Snow Light Snow
4:04 PM 24.8 °F 14.6 °F 23.0 °F 93% 29.99 in 1.0 mi NNE 10.4 mph - 0.00 in Snow Light Snow
4:15 PM 24.8 °F 15.3 °F 23.0 °F 93% 29.99 in 1.5 mi NNE 9.2 mph - 0.00 in Snow Light Snow
4:28 PM 24.8 °F 13.4 °F 21.2 °F 86% 30.00 in 2.0 mi NNE 12.7 mph - 0.00 in Snow Light Snow
4:40 PM 24.8 °F 14.6 °F 21.2 °F 86% 30.00 in 1.5 mi NNE 10.4 mph - 0.00 in Snow Light Snow
4:54 PM 25.0 °F 14.8 °F 21.9 °F 88% 30.07 in 2.0 mi NNE 10.4 mph - 0.00 in Snow Light Snow
5:18 PM 24.8 °F 14.0 °F 21.2 °F 86% 30.01 in 1.2 mi NNE 11.5 mph - 0.00 in Snow Light Snow
5:26 PM 24.8 °F 13.4 °F 21.2 °F 86% 30.02 in 1.0 mi NNE 12.7 mph - 0.00 in Snow Light Snow
5:33 PM 24.8 °F 13.4 °F 21.2 °F 86% 30.02 in 2.0 mi NE 12.7 mph - 0.00 in Snow Light Snow
5:42 PM 24.8 °F 15.3 °F 21.2 °F 86% 30.02 in 4.0 mi NNE 9.2 mph 19.6 mph 0.00 in Snow Light Snow
5:54 PM 25.0 °F 13.6 °F 21.9 °F 88% 30.09 in 8.0 mi NNE 12.7 mph - 0.00 in   Overcast
6:54 PM 25.0 °F 14.8 °F 21.9 °F 88% 30.12 in 10.0 mi NNE 10.4 mph - N/A   Overcast
7:54 PM 25.0 °F 12.6 °F 21.0 °F 85% 30.13 in 10.0 mi NE 15.0 mph 20.7 mph N/A   Overcast
8:41 PM 24.8 °F 12.4 °F 19.4 °F 80% 30.08 in 10.0 mi NE 15.0 mph 23.0 mph N/A   Overcast
8:54 PM 24.1 °F 13.1 °F 19.0 °F 81% 30.15 in 10.0 mi NE 11.5 mph - N/A   Overcast
9:17 PM 24.8 °F 13.4 °F 19.4 °F 80% 30.10 in 10.0 mi NNE 12.7 mph 18.4 mph N/A   Overcast
9:54 PM 23.0 °F 10.1 °F 18.0 °F 81% 30.18 in 10.0 mi NE 15.0 mph - N/A   Overcast
10:54 PM 21.9 °F 10.4 °F 18.0 °F 85% 30.20 in 9.0 mi NE 11.5 mph 19.6 mph 0.00 in Snow Light Snow
11:26 PM 21.2 °F 10.1 °F 17.6 °F 86% 30.14 in 10.0 mi NNE 10.4 mph - 0.00 in   Overcast
11:54 PM 21.9 °F 10.4 °F 17.1 °F 82% 30.22 in 10.0 mi NNE 11.5 mph - 0.00 in   Overcast